Theta_e
333 330 330 333 334 333 331 329 328 328 327 328 327 326 325 324 324 324 324 325 326 327 327 327 327 327 327 327 328 328 328 328 328 328 327 328 328 328 329 328 327 327
332 332 332 333 333 332 330 328 328 327 327 327 327 326 324 324 324 323 324 326 327 327 328 328 327 327 328 328 329 328 328 328 329 328 327 327 328 328 328 327 326 327
328 331 333 333 332 331 329 328 328 327 326 326 326 326 325 324 324 324 325 326 327 327 328 328 328 328 328 329 329 329 329 328 328 328 328 328 328 328 327 326 326 327
328 332 333 332 331 329 328 328 327 326 325 325 325 326 325 326 326 326 327 327 327 327 328 328 328 328 328 329 329 329 329 329 328 328 328 328 327 327 327 327 326 327
328 331 332 330 328 327 326 327 327 326 325 325 326 326 326 327 328 328 328 327 327 327 327 327 327 328 328 328 328 328 329 328 328 328 328 328 327 326 326 326 327 327
328 330 332 328 325 326 326 326 326 327 327 327 327 327 328 328 328 328 328 327 326 326 327 327 327 327 327 327 328 328 328 327 327 328 328 327 327 326 326 326 326 327
328 330 331 328 324 325 327 327 326 326 327 328 328 328 329 328 327 326 326 325 325 325 326 326 326 326 326 326 327 327 327 327 327 327 327 326 326 326 325 325 325 326
330 330 331 328 326 326 326 326 325 323 324 327 328 328 328 327 326 325 324 324 324 324 323 324 325 326 326 325 326 325 325 326 326 327 326 325 325 325 324 324 324 325
329 330 331 330 328 327 325 325 324 323 322 325 329 329 328 327 326 325 324 322 322 321 321 321 323 324 325 325 325 324 324 325 326 326 326 325 325 325 324 323 323 324
328 329 331 331 328 327 325 323 323 323 322 325 329 329 328 328 327 326 323 320 319 320 320 320 321 323 325 325 324 324 324 324 324 325 325 326 326 325 323 322 323 324
328 328 329 330 328 326 324 323 322 322 321 322 326 328 328 327 327 326 324 321 319 319 320 319 320 322 323 323 324 324 324 324 323 323 324 325 326 325 323 322 322 323
328 327 328 329 328 325 323 322 322 322 321 320 323 328 328 327 327 326 325 323 321 319 319 319 319 320 320 320 321 323 323 324 323 322 323 324 324 324 323 323 323 322
327 328 328 328 327 325 323 322 322 322 320 319 322 327 328 328 328 326 324 323 322 321 320 320 320 320 320 320 320 322 323 323 323 322 323 323 323 323 323 323 323 323
327 328 328 327 326 325 323 322 322 321 321 320 322 326 328 327 325 324 323 323 323 323 322 320 319 320 320 320 321 323 324 323 323 323 322 323 322 322 323 323 323 323
327 328 329 326 325 325 324 322 322 323 322 321 322 326 326 324 322 322 323 323 324 324 322 320 320 319 319 320 322 324 324 324 323 323 322 323 323 323 323 323 324 324
327 328 328 327 326 326 326 324 323 323 322 321 323 324 322 322 323 323 323 323 323 323 323 322 321 320 320 320 321 322 323 323 323 323 323 323 323 323 323 324 325 325
327 327 327 327 326 326 327 326 324 323 323 323 322 322 322 323 324 323 323 323 323 322 322 322 322 322 322 321 321 321 321 322 322 322 323 323 323 323 323 324 324 325
325 326 327 327 327 327 327 326 326 324 323 324 322 321 322 324 324 323 323 323 322 321 320 321 322 323 322 322 321 321 321 321 321 322 322 322 322 322 322 322 322 322
324 325 326 327 327 327 326 327 326 324 323 324 322 321 324 325 323 322 323 322 321 319 319 321 323 323 322 322 321 321 322 321 321 321 321 322 322 322 321 320 320 320
322 323 324 325 326 326 327 327 327 325 324 324 323 323 325 324 322 322 322 322 321 319 320 322 323 323 322 322 321 322 322 321 321 321 321 321 322 322 321 320 320 320
320 322 323 324 325 325 326 327 326 325 325 324 324 325 325 323 321 322 322 322 321 321 321 322 323 323 323 322 322 322 321 321 321 320 320 321 322 322 321 320 320 319
317 319 322 323 324 324 325 326 326 325 325 325 325 325 324 322 321 321 322 322 322 322 322 322 322 322 322 321 321 321 321 321 321 321 321 321 321 321 321 320 320 319
314 316 318 321 323 322 322 323 324 324 325 325 324 324 323 322 320 321 321 321 322 322 322 322 322 322 321 320 320 321 321 321 321 321 321 321 321 320 320 320 320 320
312 313 314 316 319 319 319 320 321 321 322 323 323 322 322 321 320 318 318 320 320 321 321 321 321 321 320 319 319 319 319 319 319 320 321 320 320 319 319 319 320 320
311 312 312 313 315 315 315 316 317 317 316 317 319 321 321 320 318 315 315 317 319 319 319 320 320 319 319 319 319 319 319 318 318 320 320 320 319 319 319 319 319 319
310 310 311 311 311 312 311 312 312 312 312 313 315 318 320 319 317 314 313 314 315 316 317 317 317 317 317 317 317 318 319 319 319 319 320 319 319 319 319 319 319 318
Wind_Speed
21 22 25 25 22 19 17 17 18 18 18 20 22 24 23 23 22 22 21 19 19 19 19 19 20 20 21 21 20 19 19 19 18 17 17 17 17 17 17 18 18 18
22 24 25 24 21 18 17 17 17 17 18 20 21 22 22 22 22 22 21 19 19 19 18 18 18 19 20 20 20 20 20 20 19 18 18 18 18 18 18 19 19 19
24 26 27 25 20 17 16 16 16 17 18 20 21 22 23 22 22 21 21 20 19 18 17 17 17 18 20 20 20 20 20 20 19 19 19 19 18 18 19 20 20 20
26 28 29 25 19 17 17 17 17 18 19 20 21 22 23 22 22 22 21 20 19 18 17 17 18 18 19 20 20 20 20 20 19 19 19 19 18 19 20 21 20 20
27 28 25 20 18 19 19 18 18 19 19 20 21 22 23 23 22 22 21 20 19 18 18 18 18 18 18 19 19 19 20 20 19 19 20 19 18 18 20 20 20 21
27 25 21 20 21 22 21 20 19 19 20 20 21 23 23 23 22 22 21 20 19 18 18 18 18 17 18 18 19 19 20 19 19 20 21 19 19 19 19 20 20 21
25 23 22 23 23 22 22 22 21 21 20 20 22 23 23 23 23 22 21 20 19 18 18 18 18 18 18 19 19 19 19 19 18 20 20 19 19 20 20 20 20 21
24 23 24 24 23 22 23 22 22 22 22 22 23 24 24 24 23 22 21 21 20 19 18 18 18 18 18 19 18 18 19 18 18 18 19 19 20 20 20 20 20 21
22 22 24 24 22 22 23 23 22 23 24 25 25 25 25 25 24 23 22 22 21 20 19 19 18 18 18 17 17 18 19 18 17 17 17 18 19 19 19 19 20 21
22 24 24 22 21 22 23 23 23 23 25 26 26 25 25 25 25 24 23 23 22 21 20 19 18 18 17 16 16 16 17 17 16 16 17 17 18 18 18 18 19 21
19 24 23 21 21 23 24 24 24 25 26 27 26 25 24 24 24 25 25 24 21 20 20 19 18 18 17 16 16 15 15 15 15 15 16 16 16 17 18 17 18 19
17 22 22 21 21 24 26 25 25 26 26 25 26 24 23 24 24 24 25 23 21 19 19 18 18 18 17 16 16 15 15 15 15 15 16 16 16 16 17 18 17 18
16 20 20 20 21 25 27 25 26 27 26 24 24 24 24 25 25 25 24 22 20 19 19 19 18 18 18 17 17 16 15 15 15 15 15 16 16 15 16 17 16 16
13 19 21 21 21 24 26 26 26 27 25 23 23 24 26 27 27 26 24 22 21 20 19 19 19 19 19 18 17 16 15 15 15 15 15 16 16 15 15 14 14 15
11 15 21 22 21 23 25 25 26 26 24 23 23 24 27 28 27 27 25 24 23 21 20 18 17 19 20 19 18 17 16 16 15 16 16 16 15 15 14 13 13 14
13 14 19 22 21 21 24 24 24 24 24 23 23 25 28 28 28 27 26 25 24 22 20 18 17 18 20 19 18 18 17 17 17 17 17 16 15 14 14 14 14 15
15 16 19 22 22 22 23 24 24 24 24 23 24 27 29 28 28 28 27 25 23 22 21 19 18 19 20 19 18 18 18 18 18 18 18 17 16 14 14 14 15 16
14 18 19 21 23 24 25 25 25 26 27 26 27 29 29 29 29 28 26 24 23 22 22 21 20 20 19 18 17 17 17 17 17 18 19 19 17 15 15 14 14 14
11 16 20 22 24 27 28 28 28 29 29 30 31 31 30 30 30 29 27 24 23 23 23 22 22 21 18 16 16 16 16 16 16 17 19 20 18 16 16 14 12 11
7 13 20 23 24 27 30 32 33 33 33 34 35 34 32 31 31 30 28 25 23 23 24 24 23 22 19 17 16 16 16 16 16 17 20 21 19 18 17 15 12 11
5 11 18 22 23 26 30 35 37 37 36 37 38 37 34 33 32 30 29 27 26 25 25 26 24 23 22 20 18 18 18 17 16 17 19 21 21 20 18 16 13 12
9 9 15 20 23 24 28 34 38 39 39 39 40 38 35 34 33 32 30 30 29 28 27 27 26 24 24 23 21 21 20 18 17 18 19 20 21 20 19 18 16 14
15 11 11 15 19 20 23 29 34 38 40 41 41 40 37 34 34 33 32 32 32 31 29 28 28 26 24 23 22 22 22 21 20 20 21 21 21 20 19 19 17 16
20 16 13 10 12 13 16 22 27 31 35 39 41 41 37 34 33 31 31 32 31 30 29 29 28 27 25 24 22 21 21 22 22 22 22 22 22 22 20 19 19 18
22 22 19 13 6 6 10 17 22 25 28 31 36 39 37 34 33 29 28 30 30 28 28 28 27 26 25 23 22 20 19 20 21 22 23 23 22 22 21 21 20 19
20 21 23 21 14 6 3 12 17 20 23 26 30 34 36 35 32 27 25 25 25 26 26 25 25 26 24 22 21 19 18 19 19 20 21 21 20 21 22 22 21 20
Wind_Direction
251 249 250 252 253 255 253 243 233 227 218 210 206 206 205 206 209 215 221 226 229 229 230 230 227 225 225 226 227 228 225 223 224 223 218 216 218 220 221 216 212 215
260 254 249 247 248 252 252 242 231 223 215 211 209 208 209 210 212 217 220 222 225 227 228 226 225 225 225 226 227 224 221 220 220 219 216 214 215 216 216 214 211 211
258 252 247 246 246 244 244 242 231 220 214 212 210 210 214 215 215 216 216 216 218 221 224 223 221 222 222 224 224 221 219 219 218 217 215 212 212 212 210 210 209 209
248 246 243 243 244 238 235 236 229 219 214 213 212 212 216 217 216 215 213 214 216 216 220 222 221 221 221 222 221 219 218 220 220 218 215 210 207 207 206 205 206 208
240 242 241 241 240 234 227 225 222 220 219 217 215 215 216 215 216 217 216 216 216 215 216 219 220 221 221 220 219 218 219 219 218 215 212 210 207 206 204 205 206 209
238 239 235 232 234 233 227 221 217 218 222 224 219 216 216 215 217 219 217 216 215 213 214 216 218 219 220 219 219 220 220 219 215 212 211 211 210 208 207 208 209 209
240 236 227 224 228 233 231 224 219 216 219 225 221 215 214 216 218 217 215 216 215 212 213 215 216 216 216 218 219 219 218 216 213 211 211 209 207 209 211 211 210 209
241 232 225 223 224 229 230 226 225 218 213 218 219 213 212 215 217 217 215 217 218 214 214 215 215 215 214 214 215 216 216 214 211 210 208 205 205 208 212 212 209 208
252 238 227 224 224 224 223 223 227 223 216 218 218 211 211 215 218 219 218 218 219 216 216 216 215 214 213 213 213 215 215 214 213 213 209 207 209 210 211 211 209 207
266 253 235 225 222 220 218 220 225 225 221 224 223 213 211 215 217 219 219 219 218 215 214 216 214 213 212 212 213 214 213 214 215 215 212 210 212 212 210 209 207 205
271 262 246 229 221 217 217 220 222 222 220 225 226 217 213 216 215 215 218 218 216 213 211 212 211 213 213 212 211 209 209 213 215 213 211 210 210 210 209 207 206 205
270 262 248 231 222 216 216 218 218 216 216 222 225 218 216 220 217 216 218 218 216 211 207 208 209 211 213 211 209 208 208 208 209 209 208 206 205 205 206 207 207 208
266 253 238 226 223 219 218 218 215 213 215 220 220 216 220 226 224 221 220 218 216 209 202 203 204 206 208 207 206 207 206 204 203 206 206 202 200 201 202 205 208 209
267 246 232 225 225 223 221 218 214 214 216 218 217 216 222 228 225 220 215 211 209 206 202 201 201 202 204 203 201 200 201 201 201 203 204 200 198 197 199 202 206 207
272 246 233 229 228 225 222 219 216 215 214 214 216 218 222 222 216 210 207 205 205 207 208 206 204 203 202 200 198 195 195 196 196 197 198 196 193 192 192 195 199 203
261 245 233 232 232 229 225 222 219 216 213 213 216 217 216 213 208 205 205 205 206 209 212 215 214 206 199 196 196 194 194 194 193 193 193 191 189 188 189 192 195 199
255 244 235 232 234 233 230 228 224 219 216 216 215 214 212 210 210 210 208 207 209 213 215 218 216 207 198 194 193 192 193 194 194 194 191 189 189 190 191 192 192 194
265 252 244 238 234 232 232 231 226 222 219 217 214 211 210 213 215 214 211 209 211 215 217 214 210 206 203 200 196 193 194 195 195 194 191 188 189 191 190 189 191 193
282 264 252 243 235 231 231 229 225 222 218 212 208 208 209 213 217 216 213 213 213 214 212 207 206 207 207 206 206 205 204 201 197 195 195 193 192 193 193 192 194 199
286 258 248 242 235 230 229 227 223 220 216 208 204 205 208 213 215 214 214 213 210 208 206 204 206 208 209 210 211 212 212 209 203 200 199 197 196 196 198 198 199 201
290 246 240 238 233 227 224 223 220 217 213 208 205 205 207 210 212 213 215 213 209 206 205 205 208 210 211 212 209 208 209 208 206 205 203 199 198 198 199 199 201 201
339 279 251 238 233 228 221 219 218 216 212 209 209 207 205 207 211 214 216 214 211 209 208 208 211 212 213 212 209 207 208 207 205 205 203 199 198 199 200 200 202 204
7 340 297 256 241 236 224 215 214 214 212 211 210 206 203 206 210 212 214 213 211 210 210 210 211 212 212 210 209 211 214 215 212 207 203 201 200 200 201 203 206 207
27 15 351 302 259 241 222 212 211 210 209 209 208 205 202 204 205 202 201 204 205 204 206 208 208 207 208 208 207 210 218 223 222 216 210 208 207 205 204 206 208 207
40 36 28 11 318 246 199 196 203 202 197 197 201 201 200 201 200 192 186 191 196 198 199 202 204 204 204 204 202 204 211 219 222 220 216 213 211 210 208 207 206 204
44 44 43 40 27 359 194 177 180 181 179 178 184 191 195 196 195 189 180 178 184 189 193 197 202 202 200 198 197 196 200 208 213 214 215 214 211 211 208 204 202 202